Time,TemperatureF,DewpointF,PressureIn,WindDirection,WindDirectionDegrees,WindSpeedMPH,WindSpeedGustMPH,Humidity,HourlyPrecipIn,Conditions,Clouds,dailyrainin,SoftwareType,DateUTC
2013-01-14 00:03:00,42.0,40.0,30.15,North,359,6.0,-999.0,92,-99.99,,,0.25,,2013-01-14 06:03:00,
2013-01-14 00:12:00,42.0,40.0,30.15,North,359,6.0,-999.0,92,-99.99,,,0.25,,2013-01-14 06:12:00,
2013-01-14 00:22:00,42.0,40.0,30.15,NNE,22,6.0,-999.0,91,-99.99,,,0.25,,2013-01-14 06:22:00,
2013-01-14 00:32:00,42.0,40.0,30.15,NNE,14,5.0,-999.0,91,-99.99,,,0.25,,2013-01-14 06:32:00,
2013-01-14 00:42:00,42.0,40.0,30.15,NNE,14,5.0,-999.0,91,-99.99,,,0.25,,2013-01-14 06:42:00,
2013-01-14 00:53:00,42.0,39.0,30.14,NNW,339,6.0,-999.0,90,-99.99,,,0.25,,2013-01-14 06:53:00,
2013-01-14 01:02:00,42.0,39.0,30.16,NNW,336,6.0,-999.0,90,-99.99,,,0.25,,2013-01-14 07:02:00,
2013-01-14 01:12:00,42.0,39.0,30.16,NNW,336,6.0,-999.0,90,-99.99,,,0.25,,2013-01-14 07:12:00,
2013-01-14 01:22:00,42.0,39.0,30.16,NNE,12,5.0,-999.0,90,-99.99,,,0.25,,2013-01-14 07:22:00,
2013-01-14 01:32:00,42.0,39.0,30.17,NNW,344,6.0,-999.0,90,-99.99,,,0.25,,2013-01-14 07:32:00,
2013-01-14 01:42:00,42.0,39.0,30.17,NNW,344,6.0,-999.0,90,-99.99,,,0.25,,2013-01-14 07:42:00,
2013-01-14 01:52:00,42.0,39.0,30.17,North,9,6.0,-999.0,90,-99.99,,,0.25,,2013-01-14 07:52:00,
2013-01-14 02:02:00,41.0,38.0,30.16,North,4,5.0,-999.0,90,-99.99,,,0.25,,2013-01-14 08:02:00,
2013-01-14 02:12:00,41.0,38.0,30.16,North,4,5.0,-999.0,90,-99.99,,,0.25,,2013-01-14 08:12:00,
2013-01-14 02:22:00,41.0,39.0,30.18,NNW,347,4.0,-999.0,91,-99.99,,,0.25,,2013-01-14 08:22:00,
2013-01-14 02:32:00,41.0,38.0,30.16,North,11,6.0,-999.0,89,-99.99,,,0.25,,2013-01-14 08:32:00,
2013-01-14 02:42:00,41.0,38.0,30.16,North,11,6.0,-999.0,89,-99.99,,,0.25,,2013-01-14 08:42:00,
2013-01-14 02:53:00,41.0,38.0,30.16,NNW,345,6.0,-999.0,90,-99.99,,,0.25,,2013-01-14 08:53:00,
2013-01-14 03:02:00,41.0,38.0,30.16,NNW,334,5.0,-999.0,90,-99.99,,,0.25,,2013-01-14 09:02:00,
2013-01-14 03:12:00,41.0,38.0,30.16,NNW,334,5.0,-999.0,90,-99.99,,,0.25,,2013-01-14 09:12:00,
2013-01-14 03:22:00,41.0,38.0,30.17,North,354,6.0,-999.0,89,-99.99,,,0.25,,2013-01-14 09:22:00,
2013-01-14 03:33:00,41.0,38.0,30.18,NE,45,6.0,-999.0,90,-99.99,,,0.25,,2013-01-14 09:33:00,
2013-01-14 03:42:00,41.0,38.0,30.18,NE,45,6.0,-999.0,90,-99.99,,,0.25,,2013-01-14 09:42:00,
2013-01-14 03:52:00,41.0,38.0,30.17,North,354,5.0,-999.0,90,-99.99,,,0.25,,2013-01-14 09:52:00,
2013-01-14 04:02:00,41.0,38.0,30.16,NNW,337,5.0,-999.0,90,-99.99,,,0.25,,2013-01-14 10:02:00,
2013-01-14 04:12:00,41.0,38.0,30.16,NNW,337,5.0,-999.0,90,-99.99,,,0.25,,2013-01-14 10:12:00,
2013-01-14 04:22:00,41.0,38.0,30.16,NNW,337,5.0,-999.0,90,-99.99,,,0.25,,2013-01-14 10:22:00,
2013-01-14 04:32:00,41.0,38.0,30.16,NNW,343,6.0,-999.0,90,-99.99,,,0.25,,2013-01-14 10:32:00,
2013-01-14 04:42:00,41.0,38.0,30.16,NNW,343,6.0,-999.0,90,-99.99,,,0.25,,2013-01-14 10:42:00,
2013-01-14 04:53:00,41.0,38.0,30.16,NNW,343,6.0,-999.0,89,-99.99,,,0.25,,2013-01-14 10:53:00,
2013-01-14 05:02:00,41.0,38.0,30.17,NNW,345,7.0,-999.0,89,-99.99,,,0.25,,2013-01-14 11:02:00,
2013-01-14 05:12:00,41.0,38.0,30.17,NNW,345,7.0,-999.0,89,-99.99,,,0.25,,2013-01-14 11:12:00,
2013-01-14 05:22:00,41.0,38.0,30.17,NNW,342,6.0,-999.0,90,-99.99,,,0.25,,2013-01-14 11:22:00,
2013-01-14 05:32:00,40.0,37.0,30.17,NW,323,7.0,-999.0,90,-99.99,,,0.25,,2013-01-14 11:32:00,
2013-01-14 05:42:00,40.0,37.0,30.17,NW,323,7.0,-999.0,90,-99.99,,,0.25,,2013-01-14 11:42:00,
2013-01-14 05:53:00,40.0,37.0,30.19,NW,312,5.0,-999.0,90,-99.99,,,0.25,,2013-01-14 11:53:00,
2013-01-14 06:03:00,40.0,37.0,30.18,North,4,6.0,-999.0,90,-99.99,,,0.25,,2013-01-14 12:03:00,
2013-01-14 06:12:00,40.0,37.0,30.18,North,4,6.0,-999.0,90,-99.99,,,0.25,,2013-01-14 12:12:00,
2013-01-14 06:23:00,40.0,37.0,30.19,NNW,335,7.0,-999.0,90,-99.99,,,0.25,,2013-01-14 12:23:00,
2013-01-14 06:33:00,40.0,37.0,30.19,North,354,6.0,-999.0,90,-99.99,,,0.25,,2013-01-14 12:33:00,
2013-01-14 06:43:00,40.0,37.0,30.19,North,354,6.0,-999.0,90,-99.99,,,0.25,,2013-01-14 12:43:00,
2013-01-14 06:53:00,40.0,38.0,30.19,NW,304,5.0,-999.0,91,-99.99,,,0.25,,2013-01-14 12:53:00,
2013-01-14 07:03:00,40.0,38.0,30.21,NNE,18,6.0,-999.0,91,-99.99,,,0.25,,2013-01-14 13:03:00,
2013-01-14 07:12:00,40.0,38.0,30.21,NNE,18,6.0,-999.0,91,-99.99,,,0.25,,2013-01-14 13:12:00,
2013-01-14 07:22:00,39.0,37.0,30.21,NNW,345,6.0,-999.0,92,-99.99,,,0.25,,2013-01-14 13:22:00,
2013-01-14 07:33:00,39.0,37.0,30.22,North,8,4.0,-999.0,92,-99.99,,,0.25,,2013-01-14 13:33:00,
2013-01-14 07:43:00,39.0,37.0,30.22,North,8,4.0,-999.0,92,-99.99,,,0.25,,2013-01-14 13:43:00,
2013-01-14 07:52:00,39.0,37.0,30.23,NW,314,4.0,-999.0,92,-99.99,,,0.26,,2013-01-14 13:52:00,
2013-01-14 08:02:00,39.0,37.0,30.23,NW,314,4.0,-999.0,92,-99.99,,,0.26,,2013-01-14 14:02:00,
2013-01-14 08:13:00,39.0,37.0,30.23,NW,314,4.0,-999.0,92,-99.99,,,0.26,,2013-01-14 14:13:00,
2013-01-14 08:22:00,38.0,36.0,30.22,NE,36,5.0,-999.0,93,-99.99,,,0.26,,2013-01-14 14:22:00,
2013-01-14 08:33:00,38.0,36.0,30.22,ENE,71,8.0,-999.0,92,-99.99,,,0.26,,2013-01-14 14:33:00,
2013-01-14 08:43:00,38.0,36.0,30.22,ENE,71,8.0,-999.0,92,-99.99,,,0.26,,2013-01-14 14:43:00,
2013-01-14 08:53:00,37.0,35.0,30.24,NNW,337,6.0,-999.0,93,-99.99,,,0.26,,2013-01-14 14:53:00,
2013-01-14 09:03:00,37.0,35.0,30.24,North,354,6.0,-999.0,94,-99.99,,,0.26,,2013-01-14 15:03:00,
2013-01-14 09:12:00,37.0,35.0,30.24,North,354,6.0,-999.0,94,-99.99,,,0.26,,2013-01-14 15:12:00,
2013-01-14 09:23:00,37.0,35.0,30.24,North,4,6.0,-999.0,94,-99.99,,,0.26,,2013-01-14 15:23:00,
2013-01-14 09:33:00,37.0,35.0,30.24,North,354,6.0,-999.0,94,-99.99,,,0.26,,2013-01-14 15:33:00,
2013-01-14 09:43:00,37.0,35.0,30.24,North,354,6.0,-999.0,94,-99.99,,,0.26,,2013-01-14 15:43:00,
2013-01-14 09:53:00,37.0,36.0,30.22,NE,35,6.0,-999.0,95,-99.99,,,0.28,,2013-01-14 15:53:00,
2013-01-14 10:03:00,37.0,36.0,30.22,North,4,6.0,-999.0,95,-99.99,,,0.28,,2013-01-14 16:03:00,
2013-01-14 10:12:00,37.0,36.0,30.22,North,4,6.0,-999.0,95,-99.99,,,0.28,,2013-01-14 16:12:00,
2013-01-14 10:23:00,37.0,35.0,30.22,North,10,7.0,-999.0,94,-99.99,,,0.28,,2013-01-14 16:23:00,
2013-01-14 10:33:00,37.0,36.0,30.23,NNW,342,5.0,-999.0,95,-99.99,,,0.28,,2013-01-14 16:33:00,
2013-01-14 10:43:00,37.0,36.0,30.23,NNW,342,5.0,-999.0,95,-99.99,,,0.28,,2013-01-14 16:43:00,
2013-01-14 10:53:00,37.0,36.0,30.24,NW,313,5.0,-999.0,95,-99.99,,,0.30,,2013-01-14 16:53:00,
2013-01-14 11:03:00,37.0,36.0,30.22,NNW,345,4.0,-999.0,95,-99.99,,,0.31,,2013-01-14 17:03:00,
2013-01-14 11:12:00,37.0,36.0,30.22,NNW,345,4.0,-999.0,95,-99.99,,,0.31,,2013-01-14 17:12:00,
2013-01-14 11:23:00,37.0,36.0,30.20,NE,35,4.0,-999.0,95,-99.99,,,0.31,,2013-01-14 17:23:00,
2013-01-14 11:33:00,37.0,36.0,30.19,North,349,5.0,-999.0,95,-99.99,,,0.32,,2013-01-14 17:33:00,
2013-01-14 11:43:00,37.0,36.0,30.19,North,349,5.0,-999.0,95,-99.99,,,0.32,,2013-01-14 17:43:00,
2013-01-14 11:53:00,37.0,36.0,30.18,North,354,6.0,-999.0,95,-99.99,,,0.32,,2013-01-14 17:53:00,
2013-01-14 12:03:00,37.0,36.0,30.18,North,354,5.0,-999.0,95,-99.99,,,0.33,,2013-01-14 18:03:00,
2013-01-14 12:12:00,37.0,36.0,30.18,North,354,5.0,-999.0,95,-99.99,,,0.33,,2013-01-14 18:12:00,
2013-01-14 12:23:00,37.0,36.0,30.16,North,4,5.0,-999.0,95,-99.99,,,0.34,,2013-01-14 18:23:00,
2013-01-14 12:33:00,37.0,36.0,30.17,NW,305,4.0,-999.0,95,-99.99,,,0.37,,2013-01-14 18:33:00,
2013-01-14 12:42:00,37.0,36.0,30.17,NW,305,4.0,-999.0,95,-99.99,,,0.37,,2013-01-14 18:42:00,
2013-01-14 12:52:00,37.0,36.0,30.16,NW,308,4.0,-999.0,95,-99.99,,,0.39,,2013-01-14 18:52:00,
2013-01-14 13:03:00,37.0,36.0,30.17,NNE,17,4.0,-999.0,95,-99.99,,,0.43,,2013-01-14 19:03:00,
2013-01-14 13:12:00,37.0,36.0,30.17,NNE,17,4.0,-999.0,95,-99.99,,,0.43,,2013-01-14 19:12:00,
2013-01-14 13:22:00,37.0,36.0,30.17,North,354,3.0,-999.0,96,-99.99,,,0.49,,2013-01-14 19:22:00,
2013-01-14 13:33:00,37.0,36.0,30.17,NNW,337,5.0,-999.0,95,-99.99,,,0.53,,2013-01-14 19:33:00,
2013-01-14 13:43:00,37.0,36.0,30.17,NNW,337,5.0,-999.0,95,-99.99,,,0.53,,2013-01-14 19:43:00,
2013-01-14 13:53:00,37.0,36.0,30.22,WNW,291,7.0,-999.0,95,-99.99,,,0.59,,2013-01-14 19:53:00,
2013-01-14 14:03:00,36.0,35.0,30.22,WNW,293,7.0,-999.0,95,-99.99,,,0.70,,2013-01-14 20:03:00,
2013-01-14 14:12:00,36.0,35.0,30.22,WNW,293,7.0,-999.0,95,-99.99,,,0.70,,2013-01-14 20:12:00,
2013-01-14 14:22:00,36.0,35.0,30.22,NW,309,7.0,-999.0,95,-99.99,,,0.78,,2013-01-14 20:22:00,
2013-01-14 14:33:00,35.0,33.0,30.23,North,359,7.0,-999.0,94,-99.99,,,0.79,,2013-01-14 20:33:00,
2013-01-14 14:42:00,35.0,33.0,30.23,North,359,7.0,-999.0,94,-99.99,,,0.79,,2013-01-14 20:42:00,
2013-01-14 14:53:00,35.0,34.0,30.26,NW,322,7.0,-999.0,95,-99.99,,,0.92,,2013-01-14 20:53:00,
2013-01-14 15:03:00,35.0,34.0,30.26,NW,322,7.0,-999.0,95,-99.99,,,0.92,,2013-01-14 21:03:00,
2013-01-14 15:12:00,35.0,34.0,30.26,NW,322,7.0,-999.0,95,-99.99,,,0.92,,2013-01-14 21:12:00,
2013-01-14 15:23:00,35.0,34.0,30.25,North,4,9.0,-999.0,95,-99.99,,,1.09,,2013-01-14 21:23:00,
2013-01-14 15:33:00,35.0,34.0,30.26,NNW,341,8.0,-999.0,95,-99.99,,,1.12,,2013-01-14 21:33:00,
2013-01-14 15:43:00,35.0,34.0,30.26,NNW,341,8.0,-999.0,95,-99.99,,,1.12,,2013-01-14 21:43:00,
2013-01-14 15:53:00,35.0,34.0,30.25,NNE,22,7.0,-999.0,95,-99.99,,,1.16,,2013-01-14 21:53:00,
2013-01-14 16:02:00,35.0,33.0,30.27,NNW,345,8.0,-999.0,93,-99.99,,,1.17,,2013-01-14 22:02:00,
2013-01-14 16:12:00,35.0,33.0,30.27,NNW,345,8.0,-999.0,93,-99.99,,,1.17,,2013-01-14 22:12:00,
2013-01-14 16:23:00,35.0,33.0,30.29,North,4,8.0,-999.0,93,-99.99,,,1.20,,2013-01-14 22:23:00,
2013-01-14 16:33:00,35.0,33.0,30.29,NNW,347,6.0,-999.0,94,-99.99,,,1.25,,2013-01-14 22:33:00,
2013-01-14 16:43:00,35.0,33.0,30.29,NNW,347,6.0,-999.0,94,-99.99,,,1.25,,2013-01-14 22:43:00,
2013-01-14 16:53:00,35.0,33.0,30.31,NW,319,5.0,-999.0,94,-99.99,,,1.29,,2013-01-14 22:53:00,
2013-01-14 17:03:00,35.0,33.0,30.29,North,4,7.0,-999.0,94,-99.99,,,1.31,,2013-01-14 23:03:00,
2013-01-14 17:12:00,35.0,33.0,30.29,North,4,7.0,-999.0,94,-99.99,,,1.31,,2013-01-14 23:12:00,
2013-01-14 17:23:00,34.0,32.0,30.30,NNW,343,6.0,-999.0,94,-99.99,,,1.36,,2013-01-14 23:23:00,
2013-01-14 17:33:00,34.0,32.0,30.28,North,349,7.0,-999.0,94,-99.99,,,1.40,,2013-01-14 23:33:00,
2013-01-14 17:43:00,34.0,32.0,30.28,North,349,7.0,-999.0,94,-99.99,,,1.40,,2013-01-14 23:43:00,
2013-01-14 17:53:00,34.0,32.0,30.29,NNE,16,7.0,-999.0,93,-99.99,,,1.41,,2013-01-14 23:53:00,
2013-01-14 18:02:00,34.0,32.0,30.30,North,4,8.0,-999.0,94,-99.99,,,1.43,,2013-01-15 00:02:00,
2013-01-14 18:12:00,34.0,32.0,30.30,North,4,8.0,-999.0,94,-99.99,,,1.43,,2013-01-15 00:12:00,
2013-01-14 18:22:00,34.0,32.0,30.29,NNW,345,6.0,-999.0,94,-99.99,,,1.46,,2013-01-15 00:22:00,
2013-01-14 18:32:00,34.0,32.0,30.28,NNE,19,5.0,-999.0,94,-99.99,,,0.04,,2013-01-15 00:32:00,
2013-01-14 18:43:00,34.0,32.0,30.28,NNE,19,5.0,-999.0,94,-99.99,,,0.04,,2013-01-15 00:43:00,
2013-01-14 18:52:00,35.0,33.0,30.29,NNE,29,5.0,-999.0,94,-99.99,,,0.06,,2013-01-15 00:52:00,
2013-01-14 19:02:00,35.0,33.0,30.28,North,354,5.0,-999.0,94,-99.99,,,0.09,,2013-01-15 01:02:00,
2013-01-14 19:12:00,35.0,34.0,30.27,NW,308,3.0,-999.0,95,-99.99,,,0.14,,2013-01-15 01:12:00,
2013-01-14 19:22:00,35.0,34.0,30.27,NW,308,3.0,-999.0,95,-99.99,,,0.14,,2013-01-15 01:22:00,
2013-01-14 19:32:00,35.0,34.0,30.26,ENE,70,2.0,-999.0,95,-99.99,,,0.14,,2013-01-15 01:32:00,
2013-01-14 19:43:00,35.0,34.0,30.26,ENE,70,2.0,-999.0,95,-99.99,,,0.14,,2013-01-15 01:43:00,
2013-01-14 19:52:00,35.0,34.0,30.26,NW,324,3.0,-999.0,95,-99.99,,,0.14,,2013-01-15 01:52:00,
2013-01-14 20:02:00,35.0,34.0,30.26,East,82,2.0,-999.0,95,-99.99,,,0.15,,2013-01-15 02:02:00,
2013-01-14 20:12:00,35.0,34.0,30.26,East,82,2.0,-999.0,95,-99.99,,,0.15,,2013-01-15 02:12:00,
2013-01-14 20:22:00,36.0,35.0,30.24,NNW,347,0.0,-999.0,96,-99.99,,,0.18,,2013-01-15 02:22:00,
2013-01-14 20:32:00,36.0,35.0,30.24,NNW,347,0.0,-999.0,96,-99.99,,,0.18,,2013-01-15 02:32:00,
2013-01-14 20:43:00,36.0,35.0,30.24,NNW,347,0.0,-999.0,96,-99.99,,,0.18,,2013-01-15 02:43:00,
2013-01-14 20:53:00,36.0,35.0,30.24,NNW,347,1.0,-999.0,96,-99.99,,,0.19,,2013-01-15 02:53:00,
2013-01-14 21:02:00,36.0,35.0,30.24,WNW,285,2.0,-999.0,96,-99.99,,,0.19,,2013-01-15 03:02:00,
2013-01-14 21:12:00,36.0,35.0,30.24,WNW,285,2.0,-999.0,96,-99.99,,,0.19,,2013-01-15 03:12:00,
2013-01-14 21:22:00,36.0,35.0,30.22,NE,42,1.0,-999.0,96,-99.99,,,0.20,,2013-01-15 03:22:00,
2013-01-14 21:33:00,36.0,35.0,30.22,NNW,337,1.0,-999.0,96,-99.99,,,0.20,,2013-01-15 03:33:00,
2013-01-14 21:42:00,36.0,35.0,30.22,NNW,337,1.0,-999.0,96,-99.99,,,0.20,,2013-01-15 03:42:00,
2013-01-14 21:53:00,36.0,35.0,30.22,NNW,335,2.0,-999.0,96,-99.99,,,0.20,,2013-01-15 03:53:00,
2013-01-14 22:02:00,36.0,35.0,30.20,NNE,29,4.0,-999.0,96,-99.99,,,0.20,,2013-01-15 04:02:00,
2013-01-14 22:12:00,36.0,35.0,30.20,NNE,29,4.0,-999.0,96,-99.99,,,0.20,,2013-01-15 04:12:00,
2013-01-14 22:22:00,36.0,35.0,30.19,NNE,27,2.0,-999.0,96,-99.99,,,0.20,,2013-01-15 04:22:00,
2013-01-14 22:32:00,36.0,35.0,30.19,NNE,18,1.0,-999.0,96,-99.99,,,0.20,,2013-01-15 04:32:00,
2013-01-14 22:42:00,36.0,35.0,30.19,NNE,18,1.0,-999.0,96,-99.99,,,0.20,,2013-01-15 04:42:00,
2013-01-14 22:52:00,36.0,35.0,30.20,NNW,330,2.0,-999.0,96,-99.99,,,0.20,,2013-01-15 04:52:00,
2013-01-14 23:03:00,36.0,35.0,30.18,NNE,25,3.0,-999.0,95,-99.99,,,0.20,,2013-01-15 05:03:00,
2013-01-14 23:12:00,36.0,35.0,30.18,NNE,25,3.0,-999.0,95,-99.99,,,0.20,,2013-01-15 05:12:00,
2013-01-14 23:22:00,36.0,35.0,30.17,NNE,27,3.0,-999.0,95,-99.99,,,0.20,,2013-01-15 05:22:00,
2013-01-14 23:33:00,37.0,36.0,30.19,NNW,341,3.0,-999.0,96,-99.99,,,0.20,,2013-01-15 05:33:00,
2013-01-14 23:42:00,37.0,36.0,30.19,NNW,341,3.0,-999.0,96,-99.99,,,0.20,,2013-01-15 05:42:00,
2013-01-14 23:52:00,36.0,35.0,30.18,NNW,341,3.0,-999.0,95,-99.99,,,0.20,,2013-01-15 05:52:00,